Regional Weather Roundup
Issued by NWS

Home | Current Version | Previous Version | Graphics & Text | Print | Product List | Glossary On
Versions: 1 2 3 4 5 6 7 8 9 10 11 12 13 14 15 16 17 18 19 20 21 22 23 24 25 26 27 28 29 30 31 32 33 34 35 36 37 38 39 40 41 42 43 44 45 46 47 48 49 50
000
ASUS43 KLSX 180907
RWRMO

WEATHER SUMMARY FOR MISSOURI
NATIONAL WEATHER SERVICE SPRINGFIELD MO
400 AM CDT THU SEP 18 2014

NOTE: "FAIR" INDICATES FEW OR NO CLOUDS BELOW 12,000 FEET WITH NO
       SIGNIFICANT WEATHER AND/OR OBSTRUCTIONS TO VISIBILITY.
       CURRENT SKY AND/OR WEATHER CONDITIONS ARE NOT AVAILABLE FOR
       CHILLICOTHE AND FARMINGTON.

MOZ001>031-035>038-043-044-053-054-181000-
...NORTHERN AND WESTERN MISSOURI...

CITY           SKY/WX    TMP DP  RH WIND       PRES   REMARKS
KANSAS CTY INT CLOUDY    62  61  96 SE7       30.00R FOG
KANSAS C DTWN  CLOUDY    64  61  90 E5        29.98R FOG
LEE`S SUMMIT   CLOUDY    63  61  93 SE5       29.99R FOG
ST JOSEPH      FAIR      62  60  93 SE5       29.99R
CHILLICOTHE      N/A     59  58  96 VRB3      30.01R
KIRKSVILLE     FOG       55  55 100 E5        30.01S VSB 1/4

$$
MOZ066>068-077>081-088>096-101>105-181000-
...SOUTHWEST MISSOURI...

CITY           SKY/WX    TMP DP  RH WIND       PRES   REMARKS
SPRINGFIELD    LGT RAIN  64  62  93 S15       29.95S FOG
JOPLIN         LGT RAIN  63  61  93 S9        29.96S

$$
MOZ032>034-039>042-045>050-055>058-069>072-181000-
...CENTRAL MISSOURI...

CITY           SKY/WX    TMP DP  RH WIND       PRES   REMARKS
COLUMBIA       FOG       60  60 100 E6          N/A  VSB 1/2
JEFFERSON CITY CLOUDY    62  60  93 NE3       29.98R
ROLLA          FOG       59  59 100 E6        29.96F VSB 1/2
SEDALIA        CLOUDY    63  61  93 SE8       29.98S FOG
WHITEMAN AFB   CLOUDY    62  61  98 E3        29.96S FOG
OSAGE BEACH    CLOUDY    63  61  94 E5        29.96F

$$
MOZ051-052-059>065-181000-
...EAST CENTRAL MISSOURI...

CITY           SKY/WX    TMP DP  RH WIND       PRES   REMARKS
ST LOUIS INTL  CLOUDY    62  56  80 E7        29.99S
SPIRIT OF STL  CLOUDY    61  57  87 E3        29.98R
ST CHARLES     CLOUDY    60  57  89 NE3       29.99R

$$
MOZ072>076-082>087-097>100-106>115-181000-
...SOUTH CENTRAL AND SOUTHEAST MISSOURI...

CITY           SKY/WX    TMP DP  RH WIND       PRES   REMARKS
CAPE GIRARDEAU CLOUDY    58  57  97 CALM      29.97R FOG
FARMINGTON     CLOUDY    59  57  94 NE3       30.00R
POPLAR BLUFF   MOCLDY    61  57  87 N5        29.95S FOG
WEST PLAINS    CLOUDY    61  59  93 CALM      29.97S FOG

$$



USA.gov is the U.S. government's official web portal to all federal, state and local government web resources and services.